Location: El Mouella
(16.4949°N, 9.1594°W)
Time: 17:56:01
(UTC+00:00)

Cosmos 2242 Rocket - Pass Details

Date: 02 June 2020
Orbit: 619 x 650 km, 82.5° (Epoch: 05 July)

Event Time Altitude Azimuth Distance (km) Brightness Sun altitude
Rises 19:45:51 0° 191° (S) 2,891 6.8 -9.4°
Reaches altitude 10° 19:48:06 10° 194° (SSW) 1,983 6.0 -9.8°
Maximum altitude 19:52:26 62° 275° (W) 699 4.1 -10.8°
Drops below altitude 10° 19:56:46 10° 356° (N) 1,980 6.6 -11.7°
Sets 19:59:01 0° 360° (N) 2,887 7.4 -12.2°
